Погода в Радужном

Россия / Ханты-Мансийский автономный округ - Югра     62°08′03″N   77°27′30″E
темп.,
°C
ветер,
м/с
пор.,
м/с
влажн.,
%
обл.,
%
осадки,
мм/ч
давл.,
гПа
погр.,
м
16 апреля, пт
пт1623:000сз61279100 1.5 1009607
02:00−1зсз51182100 0.0 1010387
05:00−2сз8138416 0.0 1011594
08:00−10с9128193 0.1 1016610
11:00−11с810654 0.1 1020729
14:00−11с79614 0.0 1023805
17:00−11ссз67665 0.0 1025708
20:00−13зсз35824 0.0 1025123
17 апреля, сб
сб1723:00−13зюз468369 0.0 1024102
02:00−11юз61284100 0.0 1021338
05:00−10юз91693100 0.2 1018507
08:00−6зюз101591100 0.7 1015831
11:00−5зсз91173100 0.9 10151017
14:00−6зсз7964100 0.0 10161149
17:00−7ссз5670100 0.0 1016705
20:00−11ссв5983100 0.0 1015272
18 апреля, вс
вс1823:00−14св61292100 0.0 1014326
02:00−17ссв6129342 0.0 1015266
05:00−18ссв814875 0.0 1016294
08:00−16ссв914752 0.0 1018451
11:00−14ссв10137415 0.0 1019708
14:00−12с91169100 0.0 10211033
17:00−12с81077100 0.1 10221215
20:00−14с7128360 0.1 1024570
19 апреля, пн
пн1923:00−16ссз6129032 0.1 1024369
02:00−18ссз6119493 0.0 1025410
05:00−20ссз6129225 0.0 1027367
08:00−17ссз7118394 0.0 1029496
11:00−12ссз797596 0.0 1030691
14:00−10сз7972100 0.0 1030845
17:00−9сз6974100 0.0 10291074
20:00−11з488795 0.0 1028142
20 апреля, вт
вт2023:00−9зюз51190100 0.0 1025320
02:00−8юз81394100 0.6 1020557
05:00−7юз81595100 1.8 1016663
08:00−5юз91595100 1.9 1011721
11:000з71399100 5.3 1006676
14:000сз8129378 1.9 1005813
17:000сз7109175 2.1 1006539
20:00−3ссв13179297 0.1 1010687